Time,TemperatureF,DewpointF,PressureIn,WindDirection,WindDirectionDegrees,WindSpeedMPH,WindSpeedGustMPH,Humidity,HourlyPrecipIn,Conditions,Clouds,dailyrainin,SoftwareType,DateUTC
2013-09-07 00:03:00,62.1,57.2,29.83,WSW,239,0.0,1.0,84,0.00,,,0.00,meteohub,2013-09-07 07:03:00,
2013-09-07 00:08:00,61.9,57.0,29.83,WSW,239,0.0,0.0,84,0.00,,,0.00,meteohub,2013-09-07 07:08:00,
2013-09-07 00:13:00,61.9,57.4,29.83,WSW,240,0.0,0.0,85,0.00,,,0.00,meteohub,2013-09-07 07:13:00,
2013-09-07 00:18:00,61.7,57.2,29.83,WSW,239,0.0,0.0,85,0.00,,,0.00,meteohub,2013-09-07 07:18:00,
2013-09-07 00:23:00,61.5,57.0,29.83,WSW,238,0.0,0.0,85,0.00,,,0.00,meteohub,2013-09-07 07:23:00,
2013-09-07 00:28:00,61.3,56.8,29.83,WSW,239,0.0,0.0,85,0.00,,,0.00,meteohub,2013-09-07 07:28:00,
2013-09-07 00:33:00,61.3,57.2,29.83,WSW,237,0.0,0.0,86,0.00,,,0.00,meteohub,2013-09-07 07:33:00,
2013-09-07 00:38:00,61.2,57.0,29.83,WSW,239,0.0,0.0,86,0.00,,,0.00,meteohub,2013-09-07 07:38:00,
2013-09-07 00:43:00,61.2,57.0,29.83,WSW,239,0.0,0.0,86,0.00,,,0.00,meteohub,2013-09-07 07:43:00,
2013-09-07 00:48:00,61.0,56.8,29.83,WSW,239,0.0,0.0,86,0.00,,,0.00,meteohub,2013-09-07 07:48:00,
2013-09-07 00:54:00,61.2,57.2,29.83,WSW,239,0.0,0.0,87,0.00,,,0.00,meteohub,2013-09-07 07:54:00,
2013-09-07 00:59:00,61.2,57.2,29.83,WSW,239,0.0,0.0,87,0.00,,,0.00,meteohub,2013-09-07 07:59:00,
2013-09-07 01:04:00,61.2,57.2,29.83,WSW,239,0.0,0.0,87,0.00,,,0.00,meteohub,2013-09-07 08:04:00,
2013-09-07 01:09:00,61.2,57.2,29.83,WSW,238,0.0,0.0,87,0.00,,,0.00,meteohub,2013-09-07 08:09:00,
2013-09-07 01:14:00,61.2,57.2,29.83,WSW,239,0.0,0.0,87,0.00,,,0.00,meteohub,2013-09-07 08:14:00,
2013-09-07 01:19:00,61.2,57.0,29.83,WSW,239,0.0,0.0,86,0.00,,,0.00,meteohub,2013-09-07 08:19:00,
2013-09-07 01:24:00,61.2,57.0,29.83,WSW,239,0.0,0.0,86,0.00,,,0.00,meteohub,2013-09-07 08:24:00,
2013-09-07 01:29:00,61.0,57.0,29.83,WSW,239,0.0,0.0,87,0.00,,,0.00,meteohub,2013-09-07 08:29:00,
2013-09-07 01:34:00,61.0,57.0,29.83,WSW,239,0.0,0.0,87,0.00,,,0.00,meteohub,2013-09-07 08:34:00,
2013-09-07 01:39:00,61.0,57.0,29.83,WSW,239,0.0,0.0,87,0.00,,,0.00,meteohub,2013-09-07 08:39:00,
2013-09-07 01:44:00,60.8,56.8,29.83,WSW,239,0.0,0.0,87,0.00,,,0.00,meteohub,2013-09-07 08:44:00,
2013-09-07 01:49:00,60.6,57.0,29.83,WSW,239,0.0,0.0,88,0.00,,,0.00,meteohub,2013-09-07 08:49:00,
2013-09-07 01:54:00,60.6,56.7,29.83,WSW,239,0.0,0.0,87,0.00,,,0.00,meteohub,2013-09-07 08:54:00,
2013-09-07 01:59:00,60.6,56.7,29.83,WSW,239,0.0,0.0,87,0.00,,,0.00,meteohub,2013-09-07 08:59:00,
2013-09-07 02:04:00,60.6,57.0,29.82,WSW,237,0.0,0.0,88,0.00,,,0.00,meteohub,2013-09-07 09:04:00,
2013-09-07 02:09:00,60.6,57.0,29.83,WSW,238,0.0,0.0,88,0.00,,,0.00,meteohub,2013-09-07 09:09:00,
2013-09-07 02:14:00,60.4,56.5,29.83,WSW,239,0.0,0.0,87,0.00,,,0.00,meteohub,2013-09-07 09:14:00,
2013-09-07 02:19:00,60.3,56.3,29.82,WSW,238,0.0,0.0,87,0.00,,,0.00,meteohub,2013-09-07 09:19:00,
2013-09-07 02:24:00,60.3,56.7,29.82,WSW,238,0.0,0.0,88,0.00,,,0.00,meteohub,2013-09-07 09:24:00,
2013-09-07 02:29:00,60.3,56.7,29.82,WSW,239,0.0,0.0,88,0.00,,,0.00,meteohub,2013-09-07 09:29:00,
2013-09-07 02:34:00,60.3,56.7,29.82,WSW,239,0.0,0.0,88,0.00,,,0.00,meteohub,2013-09-07 09:34:00,
2013-09-07 02:39:00,60.3,56.3,29.82,WSW,239,0.0,0.0,87,0.00,,,0.00,meteohub,2013-09-07 09:39:00,
2013-09-07 02:45:00,60.3,56.7,29.82,WSW,239,0.0,0.0,88,0.00,,,0.00,meteohub,2013-09-07 09:45:00,
2013-09-07 02:50:00,60.3,56.3,29.82,WSW,239,1.0,0.0,87,0.00,,,0.00,meteohub,2013-09-07 09:50:00,
2013-09-07 02:55:00,60.3,56.1,29.82,WSW,239,0.0,0.0,86,0.00,,,0.00,meteohub,2013-09-07 09:55:00,
2013-09-07 03:00:00,60.4,56.3,29.82,WSW,239,0.0,1.0,86,0.00,,,0.00,meteohub,2013-09-07 10:00:00,
2013-09-07 03:05:00,60.4,55.9,29.82,WSW,239,0.0,1.0,85,0.00,,,0.00,meteohub,2013-09-07 10:05:00,
2013-09-07 03:10:00,61.0,56.1,29.82,WSW,239,0.0,0.0,84,0.00,,,0.00,meteohub,2013-09-07 10:10:00,
2013-09-07 03:15:00,61.0,55.8,29.82,WSW,239,0.0,0.0,83,0.00,,,0.00,meteohub,2013-09-07 10:15:00,
2013-09-07 03:20:00,61.0,55.8,29.82,WSW,239,0.0,0.0,83,0.00,,,0.00,meteohub,2013-09-07 10:20:00,
2013-09-07 03:25:00,61.0,55.8,29.82,WSW,239,0.0,0.0,83,0.00,,,0.00,meteohub,2013-09-07 10:25:00,
2013-09-07 03:30:00,61.2,55.9,29.82,WSW,238,0.0,0.0,83,0.00,,,0.00,meteohub,2013-09-07 10:30:00,
2013-09-07 03:35:00,61.5,55.9,29.82,WSW,238,0.0,0.0,82,0.00,,,0.00,meteohub,2013-09-07 10:35:00,
2013-09-07 03:40:00,61.9,55.9,29.82,WSW,239,0.0,0.0,81,0.00,,,0.00,meteohub,2013-09-07 10:40:00,
2013-09-07 03:45:00,61.9,55.6,29.82,WSW,239,0.0,0.0,80,0.00,,,0.00,meteohub,2013-09-07 10:45:00,
2013-09-07 03:50:00,61.9,55.6,29.82,WSW,239,0.0,0.0,80,0.00,,,0.00,meteohub,2013-09-07 10:50:00,
2013-09-07 03:55:00,61.7,55.0,29.82,WSW,239,0.0,1.0,79,0.00,,,0.00,meteohub,2013-09-07 10:55:00,
2013-09-07 04:00:00,61.7,55.4,29.82,WSW,239,0.0,1.0,80,0.00,,,0.00,meteohub,2013-09-07 11:00:00,
2013-09-07 04:05:00,61.5,55.6,29.82,WSW,239,0.0,1.0,81,0.00,,,0.00,meteohub,2013-09-07 11:05:00,
2013-09-07 04:10:00,61.5,55.9,29.82,WSW,239,0.0,1.0,82,0.00,,,0.00,meteohub,2013-09-07 11:10:00,
2013-09-07 04:15:00,61.3,56.1,29.82,WSW,238,0.0,1.0,83,0.00,,,0.00,meteohub,2013-09-07 11:15:00,
2013-09-07 04:20:00,61.0,56.5,29.82,WSW,238,0.0,1.0,85,0.00,,,0.00,meteohub,2013-09-07 11:20:00,
2013-09-07 04:25:00,60.8,56.7,29.82,WSW,239,0.0,1.0,86,0.00,,,0.00,meteohub,2013-09-07 11:25:00,
2013-09-07 04:30:00,60.6,56.5,29.82,WSW,239,0.0,1.0,86,0.00,,,0.00,meteohub,2013-09-07 11:30:00,
2013-09-07 04:35:00,60.4,56.5,29.82,WSW,238,0.0,1.0,87,0.00,,,0.00,meteohub,2013-09-07 11:35:00,
2013-09-07 04:40:00,60.3,56.3,29.82,WSW,238,0.0,0.0,87,0.00,,,0.00,meteohub,2013-09-07 11:40:00,
2013-09-07 04:45:00,59.9,55.9,29.82,WSW,238,0.0,0.0,87,0.00,,,0.00,meteohub,2013-09-07 11:45:00,
2013-09-07 04:50:00,59.5,55.6,29.81,WSW,239,0.0,0.0,87,0.00,,,0.00,meteohub,2013-09-07 11:50:00,
2013-09-07 04:55:00,59.4,55.8,29.81,WSW,239,0.0,0.0,88,0.00,,,0.00,meteohub,2013-09-07 11:55:00,
2013-09-07 05:00:00,59.2,55.6,29.81,WSW,238,0.0,0.0,88,0.00,,,0.00,meteohub,2013-09-07 12:00:00,
2013-09-07 05:05:00,59.0,55.4,29.81,WSW,239,0.0,0.0,88,0.00,,,0.00,meteohub,2013-09-07 12:05:00,
2013-09-07 05:10:00,58.8,55.2,29.81,WSW,239,0.0,0.0,88,0.00,,,0.00,meteohub,2013-09-07 12:10:00,
2013-09-07 05:15:00,58.6,55.0,29.81,WSW,239,0.0,0.0,88,0.00,,,0.00,meteohub,2013-09-07 12:15:00,
2013-09-07 05:20:00,58.6,55.0,29.82,WSW,239,0.0,0.0,88,0.00,,,0.00,meteohub,2013-09-07 12:20:00,
2013-09-07 05:26:00,58.6,55.0,29.82,WSW,239,0.0,0.0,88,0.00,,,0.00,meteohub,2013-09-07 12:26:00,
2013-09-07 05:31:00,58.6,55.0,29.82,WSW,238,0.0,0.0,88,0.00,,,0.00,meteohub,2013-09-07 12:31:00,
2013-09-07 05:36:00,58.5,54.9,29.82,WSW,239,0.0,0.0,88,0.00,,,0.00,meteohub,2013-09-07 12:36:00,
2013-09-07 05:41:00,58.3,54.7,29.82,WSW,238,0.0,0.0,88,0.00,,,0.00,meteohub,2013-09-07 12:41:00,
2013-09-07 05:46:00,58.3,55.0,29.82,WSW,239,0.0,0.0,89,0.00,,,0.00,meteohub,2013-09-07 12:46:00,
2013-09-07 05:51:00,58.5,55.2,29.82,WSW,239,0.0,0.0,89,0.00,,,0.00,meteohub,2013-09-07 12:51:00,
2013-09-07 05:56:00,58.6,55.4,29.83,WSW,239,0.0,0.0,89,0.00,,,0.00,meteohub,2013-09-07 12:56:00,
2013-09-07 06:01:00,59.2,55.9,29.83,WSW,239,0.0,0.0,89,0.00,,,0.00,meteohub,2013-09-07 13:01:00,
2013-09-07 06:06:00,59.4,56.1,29.83,WSW,239,0.0,1.0,89,0.00,,,0.00,meteohub,2013-09-07 13:06:00,
2013-09-07 06:11:00,59.4,55.8,29.83,WSW,238,0.0,1.0,88,0.00,,,0.00,meteohub,2013-09-07 13:11:00,
2013-09-07 06:16:00,59.4,55.8,29.83,WSW,238,0.0,1.0,88,0.00,,,0.00,meteohub,2013-09-07 13:16:00,
2013-09-07 06:21:00,59.4,55.8,29.83,WSW,239,0.0,1.0,88,0.00,,,0.00,meteohub,2013-09-07 13:21:00,
2013-09-07 06:26:00,59.2,55.6,29.83,WSW,238,0.0,1.0,88,0.00,,,0.00,meteohub,2013-09-07 13:26:00,
2013-09-07 06:31:00,58.8,55.2,29.83,WSW,239,0.0,1.0,88,0.00,,,0.00,meteohub,2013-09-07 13:31:00,
2013-09-07 06:36:00,58.8,55.6,29.83,WSW,239,0.0,1.0,89,0.00,,,0.00,meteohub,2013-09-07 13:36:00,
2013-09-07 06:41:00,58.6,55.4,29.83,WSW,237,0.0,1.0,89,0.00,,,0.00,meteohub,2013-09-07 13:41:00,
2013-09-07 06:46:00,58.6,55.4,29.83,WSW,239,0.0,1.0,89,0.00,,,0.00,meteohub,2013-09-07 13:46:00,
2013-09-07 06:51:00,58.6,55.4,29.83,WSW,239,0.0,0.0,89,0.00,,,0.00,meteohub,2013-09-07 13:51:00,
2013-09-07 06:56:00,58.5,55.6,29.83,WSW,239,0.0,0.0,90,0.00,,,0.00,meteohub,2013-09-07 13:56:00,
2013-09-07 07:01:00,58.5,55.6,29.83,WSW,239,0.0,0.0,90,0.00,,,0.00,meteohub,2013-09-07 14:01:00,
2013-09-07 07:06:00,58.5,55.6,29.84,WSW,239,0.0,0.0,90,0.00,,,0.00,meteohub,2013-09-07 14:06:00,
2013-09-07 07:11:00,58.3,55.4,29.84,WSW,239,0.0,0.0,90,0.00,,,0.00,meteohub,2013-09-07 14:11:00,
2013-09-07 07:16:00,58.5,55.8,29.84,WSW,239,0.0,0.0,91,0.00,,,0.00,meteohub,2013-09-07 14:16:00,
2013-09-07 07:21:00,59.0,56.3,29.84,WSW,239,0.0,0.0,91,0.00,,,0.00,meteohub,2013-09-07 14:21:00,
2013-09-07 07:26:00,59.4,56.7,29.84,WSW,239,0.0,1.0,91,0.00,,,0.00,meteohub,2013-09-07 14:26:00,
2013-09-07 07:31:00,59.7,56.8,29.85,WSW,239,0.0,1.0,90,0.00,,,0.00,meteohub,2013-09-07 14:31:00,
2013-09-07 07:36:00,60.3,57.4,29.85,WSW,239,0.0,1.0,90,0.00,,,0.00,meteohub,2013-09-07 14:36:00,
2013-09-07 07:41:00,60.6,57.4,29.85,WSW,238,0.0,1.0,89,0.00,,,0.00,meteohub,2013-09-07 14:41:00,
2013-09-07 07:46:00,61.0,57.4,29.85,WSW,239,0.0,2.0,88,0.00,,,0.00,meteohub,2013-09-07 14:46:00,
2013-09-07 07:51:00,61.2,57.6,29.85,WSW,239,0.0,2.0,88,0.00,,,0.00,meteohub,2013-09-07 14:51:00,
2013-09-07 07:56:00,61.3,57.7,29.85,WSW,239,0.0,2.0,88,0.00,,,0.00,meteohub,2013-09-07 14:56:00,
2013-09-07 08:01:00,61.5,57.6,29.85,WSW,239,0.0,1.0,87,0.00,,,0.00,meteohub,2013-09-07 15:01:00,
2013-09-07 08:06:00,62.1,58.1,29.85,WSW,239,0.0,1.0,87,0.00,,,0.00,meteohub,2013-09-07 15:06:00,
2013-09-07 08:11:00,62.2,57.9,29.86,WSW,239,1.0,1.0,86,0.00,,,0.00,meteohub,2013-09-07 15:11:00,
2013-09-07 08:16:00,62.4,58.1,29.85,WSW,239,0.0,2.0,86,0.00,,,0.00,meteohub,2013-09-07 15:16:00,
2013-09-07 08:21:00,63.0,58.6,29.86,WSW,239,0.0,2.0,86,0.00,,,0.00,meteohub,2013-09-07 15:21:00,
2013-09-07 08:26:00,63.1,58.6,29.86,WSW,239,0.0,2.0,85,0.00,,,0.00,meteohub,2013-09-07 15:26:00,
2013-09-07 08:31:00,63.7,58.8,29.86,WSW,239,0.0,0.0,84,0.00,,,0.00,meteohub,2013-09-07 15:31:00,
2013-09-07 08:36:00,64.0,58.8,29.86,WSW,238,0.0,0.0,83,0.00,,,0.00,meteohub,2013-09-07 15:36:00,
2013-09-07 08:42:00,64.4,58.8,29.86,WSW,239,0.0,0.0,82,0.00,,,0.00,meteohub,2013-09-07 15:42:00,
2013-09-07 08:47:00,64.9,59.4,29.86,WSW,239,0.0,0.0,82,0.00,,,0.00,meteohub,2013-09-07 15:47:00,
2013-09-07 08:52:00,65.8,59.9,29.86,WSW,239,0.0,0.0,81,0.00,,,0.00,meteohub,2013-09-07 15:52:00,
2013-09-07 08:57:00,66.6,59.9,29.86,WSW,239,0.0,0.0,79,0.00,,,0.00,meteohub,2013-09-07 15:57:00,
2013-09-07 09:02:00,67.3,60.3,29.86,WSW,239,0.0,0.0,78,0.00,,,0.00,meteohub,2013-09-07 16:02:00,
2013-09-07 09:07:00,67.8,60.3,29.86,WSW,239,0.0,0.0,77,0.00,,,0.00,meteohub,2013-09-07 16:07:00,
2013-09-07 09:12:00,68.2,60.3,29.86,WSW,239,0.0,0.0,76,0.00,,,0.00,meteohub,2013-09-07 16:12:00,
2013-09-07 09:17:00,68.7,60.4,29.86,WSW,239,0.0,0.0,75,0.00,,,0.00,meteohub,2013-09-07 16:17:00,
2013-09-07 09:22:00,69.3,61.0,29.86,WSW,239,0.0,0.0,75,0.00,,,0.00,meteohub,2013-09-07 16:22:00,
2013-09-07 09:27:00,70.0,61.3,29.86,WSW,239,0.0,0.0,74,0.00,,,0.00,meteohub,2013-09-07 16:27:00,
2013-09-07 09:32:00,70.3,60.4,29.86,WSW,239,0.0,0.0,71,0.00,,,0.00,meteohub,2013-09-07 16:32:00,
2013-09-07 09:37:00,70.9,61.0,29.87,WSW,239,0.0,0.0,71,0.00,,,0.00,meteohub,2013-09-07 16:37:00,
2013-09-07 09:42:00,71.2,61.0,29.86,WSW,239,0.0,0.0,70,0.00,,,0.00,meteohub,2013-09-07 16:42:00,
2013-09-07 09:47:00,71.8,61.5,29.86,WSW,239,0.0,0.0,70,0.00,,,0.00,meteohub,2013-09-07 16:47:00,
2013-09-07 09:52:00,72.1,61.3,29.86,WSW,239,0.0,0.0,69,0.00,,,0.00,meteohub,2013-09-07 16:52:00,
2013-09-07 09:57:00,72.7,61.5,29.86,WSW,239,2.0,0.0,68,0.00,,,0.00,meteohub,2013-09-07 16:57:00,
2013-09-07 10:02:00,72.5,61.0,29.86,WSW,239,1.0,2.0,67,0.00,,,0.00,meteohub,2013-09-07 17:02:00,
2013-09-07 10:07:00,72.0,60.8,29.86,WSW,239,2.0,3.0,68,0.00,,,0.00,meteohub,2013-09-07 17:07:00,
2013-09-07 10:12:00,71.4,59.9,29.86,WSW,238,2.0,4.0,67,0.00,,,0.00,meteohub,2013-09-07 17:12:00,
2013-09-07 10:17:00,71.1,60.8,29.86,WSW,239,1.0,4.0,70,0.00,,,0.00,meteohub,2013-09-07 17:17:00,
2013-09-07 10:22:00,70.9,60.3,29.86,NW,306,2.0,4.0,69,0.00,,,0.00,meteohub,2013-09-07 17:22:00,
2013-09-07 10:27:00,70.5,59.9,29.86,WNW,291,2.0,5.0,69,0.00,,,0.00,meteohub,2013-09-07 17:27:00,
2013-09-07 10:32:00,70.5,60.3,29.86,NW,309,2.0,5.0,70,0.00,,,0.00,meteohub,2013-09-07 17:32:00,
2013-09-07 10:37:00,71.1,60.8,29.86,NW,324,3.0,5.0,70,0.00,,,0.00,meteohub,2013-09-07 17:37:00,
2013-09-07 10:42:00,71.2,61.0,29.86,WNW,291,1.0,4.0,70,0.00,,,0.00,meteohub,2013-09-07 17:42:00,
2013-09-07 10:47:00,71.6,60.8,29.86,West,281,2.0,4.0,69,0.00,,,0.00,meteohub,2013-09-07 17:47:00,
2013-09-07 10:52:00,71.8,60.6,29.86,NW,306,1.0,4.0,68,0.00,,,0.00,meteohub,2013-09-07 17:52:00,
2013-09-07 10:57:00,72.1,61.0,29.86,NW,313,1.0,4.0,68,0.00,,,0.00,meteohub,2013-09-07 17:57:00,
2013-09-07 11:02:00,72.7,61.5,29.86,NW,306,2.0,4.0,68,0.00,,,0.00,meteohub,2013-09-07 18:02:00,
2013-09-07 11:07:00,72.9,61.3,29.87,NW,318,2.0,3.0,67,0.00,,,0.00,meteohub,2013-09-07 18:07:00,
2013-09-07 11:12:00,73.2,61.2,29.86,WNW,297,3.0,3.0,66,0.00,,,0.00,meteohub,2013-09-07 18:12:00,
2013-09-07 11:17:00,73.6,61.2,29.86,WNW,300,3.0,4.0,65,0.00,,,0.00,meteohub,2013-09-07 18:17:00,
2013-09-07 11:22:00,73.9,61.0,29.86,NW,304,4.0,4.0,64,0.00,,,0.00,meteohub,2013-09-07 18:22:00,
2013-09-07 11:27:00,73.6,61.2,29.86,WNW,299,3.0,6.0,65,0.00,,,0.00,meteohub,2013-09-07 18:27:00,
2013-09-07 11:32:00,73.6,61.2,29.86,NW,314,2.0,6.0,65,0.00,,,0.00,meteohub,2013-09-07 18:32:00,
2013-09-07 11:37:00,73.4,61.0,29.86,NW,304,2.0,6.0,65,0.00,,,0.00,meteohub,2013-09-07 18:37:00,
2013-09-07 11:42:00,73.8,60.8,29.86,NW,313,3.0,6.0,64,0.00,,,0.00,meteohub,2013-09-07 18:42:00,
2013-09-07 11:47:00,74.1,61.2,29.86,WNW,290,0.0,5.0,64,0.00,,,0.00,meteohub,2013-09-07 18:47:00,
2013-09-07 11:52:00,75.4,61.5,29.86,NW,309,1.0,4.0,62,0.00,,,0.00,meteohub,2013-09-07 18:52:00,
2013-09-07 11:57:00,75.9,61.5,29.86,WSW,257,5.0,5.0,61,0.00,,,0.00,meteohub,2013-09-07 18:57:00,
2013-09-07 12:02:00,76.5,61.0,29.86,WNW,299,2.0,5.0,59,0.00,,,0.00,meteohub,2013-09-07 19:02:00,
2013-09-07 12:07:00,76.5,60.1,29.86,WSW,245,2.0,5.0,57,0.00,,,0.00,meteohub,2013-09-07 19:07:00,
2013-09-07 12:12:00,76.5,60.1,29.86,WSW,252,5.0,6.0,57,0.00,,,0.00,meteohub,2013-09-07 19:12:00,
2013-09-07 12:17:00,76.1,59.2,29.86,NW,326,4.0,7.0,56,0.00,,,0.00,meteohub,2013-09-07 19:17:00,
2013-09-07 12:22:00,75.7,60.4,29.86,WNW,287,2.0,8.0,59,0.00,,,0.00,meteohub,2013-09-07 19:22:00,
2013-09-07 12:27:00,75.6,58.8,29.86,SW,234,5.0,8.0,56,0.00,,,0.00,meteohub,2013-09-07 19:27:00,
2013-09-07 12:32:00,74.7,58.5,29.86,WSW,237,10.0,10.0,57,0.00,,,0.00,meteohub,2013-09-07 19:32:00,
2013-09-07 12:37:00,73.9,59.2,29.86,SW,230,6.0,10.0,60,0.00,,,0.00,meteohub,2013-09-07 19:37:00,
2013-09-07 12:42:00,74.1,58.5,29.86,West,270,10.0,10.0,58,0.00,,,0.00,meteohub,2013-09-07 19:42:00,
2013-09-07 12:47:00,73.9,58.6,29.86,WSW,245,7.0,10.0,59,0.00,,,0.00,meteohub,2013-09-07 19:47:00,
2013-09-07 12:52:00,73.9,58.6,29.86,SSW,208,2.0,10.0,59,0.00,,,0.00,meteohub,2013-09-07 19:52:00,
2013-09-07 12:57:00,73.8,59.0,29.86,SW,231,3.0,11.0,60,0.00,,,0.00,meteohub,2013-09-07 19:57:00,
2013-09-07 13:02:00,73.8,59.0,29.86,WSW,245,5.0,11.0,60,0.00,,,0.00,meteohub,2013-09-07 20:02:00,
2013-09-07 13:08:00,73.4,58.6,29.86,WSW,246,8.0,9.0,60,0.00,,,0.00,meteohub,2013-09-07 20:08:00,
2013-09-07 13:13:00,73.2,59.0,29.86,WSW,241,7.0,9.0,61,0.00,,,0.00,meteohub,2013-09-07 20:13:00,
2013-09-07 13:18:00,72.9,59.5,29.86,West,272,3.0,10.0,63,0.00,,,0.00,meteohub,2013-09-07 20:18:00,
2013-09-07 13:23:00,73.2,59.4,29.85,SW,225,1.0,10.0,62,0.00,,,0.00,meteohub,2013-09-07 20:23:00,
2013-09-07 13:28:00,73.2,59.0,29.85,WSW,258,9.0,10.0,61,0.00,,,0.00,meteohub,2013-09-07 20:28:00,
2013-09-07 13:33:00,72.3,59.0,29.85,WSW,254,7.0,11.0,63,0.00,,,0.00,meteohub,2013-09-07 20:33:00,
2013-09-07 13:38:00,72.0,59.2,29.85,WNW,288,8.0,11.0,64,0.00,,,0.00,meteohub,2013-09-07 20:38:00,
2013-09-07 13:43:00,72.0,58.6,29.85,WSW,238,7.0,11.0,63,0.00,,,0.00,meteohub,2013-09-07 20:43:00,
2013-09-07 13:48:00,71.8,59.4,29.85,WSW,256,7.0,11.0,65,0.00,,,0.00,meteohub,2013-09-07 20:48:00,
2013-09-07 13:53:00,72.1,59.4,29.85,West,261,10.0,11.0,64,0.00,,,0.00,meteohub,2013-09-07 20:53:00,
2013-09-07 13:58:00,72.3,59.0,29.84,West,266,2.0,11.0,63,0.00,,,0.00,meteohub,2013-09-07 20:58:00,
2013-09-07 14:03:00,72.7,58.8,29.84,WSW,244,8.0,11.0,62,0.00,,,0.00,meteohub,2013-09-07 21:03:00,
2013-09-07 14:08:00,72.7,58.8,29.84,WSW,238,8.0,11.0,62,0.00,,,0.00,meteohub,2013-09-07 21:08:00,
2013-09-07 14:13:00,73.0,58.3,29.84,SW,236,10.0,11.0,60,0.00,,,0.00,meteohub,2013-09-07 21:13:00,
2013-09-07 14:18:00,73.0,58.8,29.84,SW,214,4.0,11.0,61,0.00,,,0.00,meteohub,2013-09-07 21:18:00,
2013-09-07 14:23:00,73.2,58.5,29.84,WSW,247,7.0,11.0,60,0.00,,,0.00,meteohub,2013-09-07 21:23:00,
2013-09-07 14:28:00,73.0,57.9,29.84,West,262,6.0,12.0,59,0.00,,,0.00,meteohub,2013-09-07 21:28:00,
2013-09-07 14:33:00,72.5,58.8,29.83,WSW,242,5.0,13.0,62,0.00,,,0.00,meteohub,2013-09-07 21:33:00,
2013-09-07 14:38:00,73.2,59.0,29.84,SW,225,2.0,13.0,61,0.00,,,0.00,meteohub,2013-09-07 21:38:00,
2013-09-07 14:43:00,73.4,58.3,29.83,WSW,243,9.0,13.0,59,0.00,,,0.00,meteohub,2013-09-07 21:43:00,
2013-09-07 14:48:00,73.2,58.1,29.84,SW,217,5.0,13.0,59,0.00,,,0.00,meteohub,2013-09-07 21:48:00,
2013-09-07 14:53:00,73.0,58.3,29.84,West,261,3.0,12.0,60,0.00,,,0.00,meteohub,2013-09-07 21:53:00,
2013-09-07 14:58:00,73.6,57.9,29.84,West,273,6.0,12.0,58,0.00,,,0.00,meteohub,2013-09-07 21:58:00,
2013-09-07 15:03:00,73.8,57.6,29.84,West,264,1.0,12.0,57,0.00,,,0.00,meteohub,2013-09-07 22:03:00,
2013-09-07 15:08:00,73.6,56.8,29.84,SSW,206,8.0,10.0,56,0.00,,,0.00,meteohub,2013-09-07 22:08:00,
2013-09-07 15:13:00,72.9,56.7,29.84,WNW,297,7.0,13.0,57,0.00,,,0.00,meteohub,2013-09-07 22:13:00,
2013-09-07 15:18:00,72.3,57.2,29.83,South,176,4.0,15.0,59,0.00,,,0.00,meteohub,2013-09-07 22:18:00,
2013-09-07 15:23:00,72.0,57.4,29.83,WSW,241,3.0,15.0,60,0.00,,,0.00,meteohub,2013-09-07 22:23:00,
2013-09-07 15:28:00,72.1,57.6,29.83,SW,229,0.0,15.0,60,0.00,,,0.00,meteohub,2013-09-07 22:28:00,
2013-09-07 15:33:00,72.7,58.5,29.83,SW,231,2.0,12.0,61,0.00,,,0.00,meteohub,2013-09-07 22:33:00,
2013-09-07 15:38:00,72.9,58.6,29.83,SW,235,14.0,14.0,61,0.00,,,0.00,meteohub,2013-09-07 22:38:00,
2013-09-07 15:43:00,72.3,58.6,29.83,SW,235,5.0,15.0,62,0.00,,,0.00,meteohub,2013-09-07 22:43:00,
2013-09-07 15:48:00,71.6,58.8,29.83,WSW,250,10.0,15.0,64,0.00,,,0.00,meteohub,2013-09-07 22:48:00,
2013-09-07 15:53:00,70.3,58.8,29.83,West,272,5.0,15.0,67,0.00,,,0.00,meteohub,2013-09-07 22:53:00,
2013-09-07 15:58:00,70.2,58.6,29.83,WNW,289,9.0,14.0,67,0.00,,,0.00,meteohub,2013-09-07 22:58:00,
2013-09-07 16:03:00,69.6,58.6,29.83,WSW,257,9.0,14.0,68,0.00,,,0.00,meteohub,2013-09-07 23:03:00,
2013-09-07 16:08:00,69.4,58.5,29.83,West,274,5.0,12.0,68,0.00,,,0.00,meteohub,2013-09-07 23:08:00,
2013-09-07 16:13:00,68.9,58.3,29.83,SW,216,9.0,13.0,69,0.00,,,0.00,meteohub,2013-09-07 23:13:00,
2013-09-07 16:19:00,69.3,59.0,29.82,West,281,10.0,13.0,70,0.00,,,0.00,meteohub,2013-09-07 23:19:00,
2013-09-07 16:24:00,69.3,58.6,29.82,WSW,237,11.0,13.0,69,0.00,,,0.00,meteohub,2013-09-07 23:24:00,
2013-09-07 16:29:00,69.4,58.5,29.82,West,274,1.0,13.0,68,0.00,,,0.00,meteohub,2013-09-07 23:29:00,
2013-09-07 16:34:00,69.4,58.5,29.82,SE,136,0.0,13.0,68,0.00,,,0.00,meteohub,2013-09-07 23:34:00,
2013-09-07 16:39:00,69.3,58.3,29.82,West,266,9.0,13.0,68,0.00,,,0.00,meteohub,2013-09-07 23:39:00,
2013-09-07 16:44:00,67.8,57.7,29.82,SW,225,8.0,13.0,70,0.00,,,0.00,meteohub,2013-09-07 23:44:00,
2013-09-07 16:49:00,67.5,58.1,29.82,West,260,7.0,14.0,72,0.00,,,0.00,meteohub,2013-09-07 23:49:00,
2013-09-07 16:54:00,66.9,58.8,29.82,West,262,6.0,14.0,75,0.00,,,0.00,meteohub,2013-09-07 23:54:00,
2013-09-07 16:59:00,66.4,58.6,29.82,WSW,256,5.0,13.0,76,0.00,,,0.00,meteohub,2013-09-07 23:59:00,
2013-09-07 17:04:00,65.8,58.8,29.82,WSW,251,7.0,13.0,78,0.00,,,0.00,meteohub,2013-09-08 00:04:00,
2013-09-07 17:09:00,65.3,58.6,29.82,SW,220,9.0,14.0,79,0.00,,,0.00,meteohub,2013-09-08 00:09:00,
2013-09-07 17:14:00,65.1,59.2,29.82,West,272,6.0,14.0,81,0.00,,,0.00,meteohub,2013-09-08 00:14:00,
2013-09-07 17:19:00,65.8,59.2,29.82,WSW,246,9.0,14.0,79,0.00,,,0.00,meteohub,2013-09-08 00:19:00,
2013-09-07 17:24:00,66.0,59.4,29.82,SW,235,8.0,14.0,79,0.00,,,0.00,meteohub,2013-09-08 00:24:00,
2013-09-07 17:29:00,66.4,59.7,29.82,WNW,283,8.0,12.0,79,0.00,,,0.00,meteohub,2013-09-08 00:29:00,
2013-09-07 17:34:00,65.7,59.0,29.82,SW,214,6.0,11.0,79,0.00,,,0.00,meteohub,2013-09-08 00:34:00,
2013-09-07 17:39:00,65.1,58.8,29.82,SW,221,7.0,13.0,80,0.00,,,0.00,meteohub,2013-09-08 00:39:00,
2013-09-07 17:44:00,64.9,59.0,29.82,WSW,237,11.0,14.0,81,0.00,,,0.00,meteohub,2013-09-08 00:44:00,
2013-09-07 17:49:00,64.4,58.5,29.82,SW,235,7.0,14.0,81,0.00,,,0.00,meteohub,2013-09-08 00:49:00,
2013-09-07 17:54:00,64.2,58.6,29.82,WSW,243,9.0,14.0,82,0.00,,,0.00,meteohub,2013-09-08 00:54:00,
2013-09-07 17:59:00,64.2,59.0,29.82,SW,222,7.0,14.0,83,0.00,,,0.00,meteohub,2013-09-08 00:59:00,
2013-09-07 18:04:00,64.6,59.0,29.82,West,262,7.0,14.0,82,0.00,,,0.00,meteohub,2013-09-08 01:04:00,
2013-09-07 18:09:00,64.6,59.0,29.82,WSW,247,11.0,14.0,82,0.00,,,0.00,meteohub,2013-09-08 01:09:00,
2013-09-07 18:14:00,64.0,58.8,29.82,West,279,9.0,14.0,83,0.00,,,0.00,meteohub,2013-09-08 01:14:00,
2013-09-07 18:19:00,63.9,59.0,29.82,SW,218,6.0,14.0,84,0.00,,,0.00,meteohub,2013-09-08 01:19:00,
2013-09-07 18:24:00,63.5,58.6,29.82,SW,234,10.0,14.0,84,0.00,,,0.00,meteohub,2013-09-08 01:24:00,
2013-09-07 18:29:00,63.0,58.5,29.82,WSW,252,9.0,13.0,85,0.00,,,0.00,meteohub,2013-09-08 01:29:00,
2013-09-07 18:34:00,62.6,58.6,29.82,WSW,247,8.0,13.0,87,0.00,,,0.00,meteohub,2013-09-08 01:34:00,
2013-09-07 18:39:00,62.6,58.6,29.82,WSW,243,8.0,13.0,87,0.00,,,0.00,meteohub,2013-09-08 01:39:00,
2013-09-07 18:44:00,62.2,58.3,29.82,WSW,255,6.0,13.0,87,0.00,,,0.00,meteohub,2013-09-08 01:44:00,
2013-09-07 18:49:00,61.9,58.3,29.82,WSW,245,8.0,14.0,88,0.00,,,0.00,meteohub,2013-09-08 01:49:00,
2013-09-07 18:54:00,61.9,58.3,29.82,WNW,284,9.0,14.0,88,0.00,,,0.00,meteohub,2013-09-08 01:54:00,
2013-09-07 18:59:00,61.5,58.3,29.82,SW,234,11.0,14.0,89,0.00,,,0.00,meteohub,2013-09-08 01:59:00,
2013-09-07 19:04:00,61.2,57.9,29.82,WSW,256,10.0,13.0,89,0.00,,,0.00,meteohub,2013-09-08 02:04:00,
2013-09-07 19:09:00,61.0,58.1,29.82,WSW,246,8.0,14.0,90,0.00,,,0.00,meteohub,2013-09-08 02:09:00,
2013-09-07 19:14:00,61.0,58.1,29.82,West,259,9.0,14.0,90,0.00,,,0.00,meteohub,2013-09-08 02:14:00,
2013-09-07 19:19:00,60.4,57.6,29.82,SW,221,4.0,14.0,90,0.00,,,0.00,meteohub,2013-09-08 02:19:00,
2013-09-07 19:24:00,59.9,57.2,29.82,SW,231,6.0,13.0,91,0.00,,,0.00,meteohub,2013-09-08 02:24:00,
2013-09-07 19:29:00,59.4,57.0,29.82,WSW,239,5.0,14.0,92,0.00,,,0.00,meteohub,2013-09-08 02:29:00,
2013-09-07 19:34:00,59.2,57.2,29.82,SW,236,5.0,14.0,93,0.00,,,0.00,meteohub,2013-09-08 02:34:00,
2013-09-07 19:40:00,58.8,56.8,29.82,SW,232,8.0,14.0,93,0.00,,,0.00,meteohub,2013-09-08 02:40:00,
2013-09-07 19:45:00,58.5,56.5,29.82,West,260,8.0,11.0,93,0.00,,,0.00,meteohub,2013-09-08 02:45:00,
2013-09-07 19:50:00,58.3,56.3,29.83,WSW,255,6.0,11.0,93,0.00,,,0.00,meteohub,2013-09-08 02:50:00,
2013-09-07 19:55:00,57.9,56.1,29.83,WSW,239,4.0,11.0,94,0.00,,,0.00,meteohub,2013-09-08 02:55:00,
2013-09-07 20:00:00,57.9,56.1,29.83,West,259,7.0,12.0,94,0.00,,,0.00,meteohub,2013-09-08 03:00:00,
2013-09-07 20:05:00,58.1,56.7,29.83,West,278,9.0,12.0,95,0.00,,,0.00,meteohub,2013-09-08 03:05:00,
2013-09-07 20:10:00,58.3,56.8,29.83,WSW,242,2.0,12.0,95,0.00,,,0.00,meteohub,2013-09-08 03:10:00,
2013-09-07 20:15:00,58.3,56.8,29.83,WSW,243,4.0,13.0,95,0.00,,,0.00,meteohub,2013-09-08 03:15:00,
2013-09-07 20:20:00,58.1,56.7,29.83,SSW,201,11.0,13.0,95,0.00,,,0.00,meteohub,2013-09-08 03:20:00,
2013-09-07 20:25:00,57.7,56.3,29.83,WSW,252,5.0,13.0,95,0.00,,,0.00,meteohub,2013-09-08 03:25:00,
2013-09-07 20:30:00,57.7,56.3,29.83,South,176,7.0,13.0,95,0.00,,,0.00,meteohub,2013-09-08 03:30:00,
2013-09-07 20:35:00,57.6,56.5,29.84,SW,227,3.0,13.0,96,0.00,,,0.00,meteohub,2013-09-08 03:35:00,
2013-09-07 20:40:00,57.6,56.5,29.84,West,273,1.0,13.0,96,0.00,,,0.00,meteohub,2013-09-08 03:40:00,
2013-09-07 20:45:00,57.6,56.5,29.84,SW,235,5.0,11.0,96,0.00,,,0.00,meteohub,2013-09-08 03:45:00,
2013-09-07 20:50:00,57.6,56.5,29.84,WSW,252,4.0,11.0,96,0.00,,,0.00,meteohub,2013-09-08 03:50:00,
2013-09-07 20:55:00,57.6,56.7,29.84,WSW,240,1.0,11.0,97,0.00,,,0.00,meteohub,2013-09-08 03:55:00,
2013-09-07 21:00:00,57.7,56.8,29.85,WNW,282,1.0,10.0,97,0.00,,,0.00,meteohub,2013-09-08 04:00:00,
2013-09-07 21:01:00,57.7,56.8,29.84,WSW,242,3.0,10.0,97,0.00,,,0.00,meteohub,2013-09-08 04:01:00,
2013-09-07 21:02:00,57.7,56.7,29.84,WSW,239,4.0,10.0,96,0.00,,,0.00,meteohub,2013-09-08 04:02:00,
2013-09-07 21:05:00,57.6,56.5,29.84,South,176,2.0,9.0,96,0.00,,,0.00,meteohub,2013-09-08 04:05:00,
2013-09-07 21:10:00,57.6,56.7,29.85,WNW,287,5.0,10.0,97,0.00,,,0.00,meteohub,2013-09-08 04:10:00,
2013-09-07 21:12:00,57.6,56.7,29.84,SW,220,4.0,10.0,97,0.00,,,0.00,meteohub,2013-09-08 04:12:00,
2013-09-07 21:17:00,57.6,56.7,29.85,WSW,242,7.0,10.0,97,0.00,,,0.00,meteohub,2013-09-08 04:17:00,
2013-09-07 21:22:00,57.4,56.3,29.85,SW,221,9.0,10.0,96,0.00,,,0.00,meteohub,2013-09-08 04:22:00,
2013-09-07 21:27:00,57.2,56.1,29.85,West,260,6.0,9.0,96,0.00,,,0.00,meteohub,2013-09-08 04:27:00,
2013-09-07 21:32:00,57.0,56.1,29.85,West,279,4.0,13.0,97,0.00,,,0.00,meteohub,2013-09-08 04:32:00,
2013-09-07 21:37:00,57.0,56.1,29.86,SW,229,4.0,13.0,97,0.00,,,0.00,meteohub,2013-09-08 04:37:00,
2013-09-07 21:42:00,56.7,55.6,29.86,SW,225,5.0,13.0,96,0.00,,,0.00,meteohub,2013-09-08 04:42:00,
2013-09-07 21:47:00,56.5,55.6,29.85,WNW,294,5.0,11.0,97,0.00,,,0.00,meteohub,2013-09-08 04:47:00,
2013-09-07 21:52:00,56.5,55.6,29.86,SW,229,6.0,11.0,97,0.00,,,0.00,meteohub,2013-09-08 04:52:00,
2013-09-07 21:57:00,56.5,55.6,29.86,WSW,254,3.0,10.0,97,0.00,,,0.00,meteohub,2013-09-08 04:57:00,
2013-09-07 22:02:00,56.5,55.6,29.86,WNW,286,2.0,10.0,97,0.00,,,0.00,meteohub,2013-09-08 05:02:00,
2013-09-07 22:07:00,56.7,55.8,29.86,WSW,246,4.0,10.0,97,0.00,,,0.00,meteohub,2013-09-08 05:07:00,
2013-09-07 22:12:00,56.7,55.8,29.86,WSW,255,5.0,10.0,97,0.00,,,0.00,meteohub,2013-09-08 05:12:00,
2013-09-07 22:17:00,56.7,55.8,29.86,SW,225,3.0,12.0,97,0.00,,,0.00,meteohub,2013-09-08 05:17:00,
2013-09-07 22:22:00,56.7,55.8,29.86,West,259,3.0,12.0,97,0.00,,,0.00,meteohub,2013-09-08 05:22:00,
2013-09-07 22:27:00,56.8,55.9,29.86,SW,223,9.0,12.0,97,0.00,,,0.00,meteohub,2013-09-08 05:27:00,
2013-09-07 22:32:00,56.5,55.6,29.86,WSW,254,5.0,11.0,97,0.00,,,0.00,meteohub,2013-09-08 05:32:00,
2013-09-07 22:37:00,56.5,55.6,29.86,West,260,7.0,11.0,97,0.00,,,0.00,meteohub,2013-09-08 05:37:00,
2013-09-07 22:42:00,56.5,55.6,29.86,SSW,212,6.0,11.0,97,0.00,,,0.00,meteohub,2013-09-08 05:42:00,
2013-09-07 22:47:00,56.5,55.6,29.86,WSW,253,4.0,14.0,97,0.00,,,0.00,meteohub,2013-09-08 05:47:00,
2013-09-07 22:52:00,56.5,55.9,29.86,WSW,247,10.0,14.0,98,0.00,,,0.00,meteohub,2013-09-08 05:52:00,
2013-09-07 22:57:00,56.5,55.6,29.86,SSW,196,3.0,14.0,97,0.00,,,0.00,meteohub,2013-09-08 05:57:00,
2013-09-07 23:02:00,56.7,56.1,29.86,WSW,254,5.0,12.0,98,0.00,,,0.00,meteohub,2013-09-08 06:02:00,
2013-09-07 23:07:00,56.7,56.1,29.86,WSW,239,4.0,12.0,98,0.00,,,0.00,meteohub,2013-09-08 06:07:00,
2013-09-07 23:12:00,56.7,56.1,29.86,WSW,243,9.0,12.0,98,0.00,,,0.00,meteohub,2013-09-08 06:12:00,
2013-09-07 23:17:00,56.7,56.1,29.86,WSW,258,3.0,11.0,98,0.00,,,0.00,meteohub,2013-09-08 06:17:00,
2013-09-07 23:22:00,56.7,56.1,29.86,West,266,2.0,10.0,98,0.00,,,0.00,meteohub,2013-09-08 06:22:00,
2013-09-07 23:27:00,56.7,56.1,29.86,West,260,6.0,11.0,98,0.00,,,0.00,meteohub,2013-09-08 06:27:00,
2013-09-07 23:32:00,56.7,56.1,29.86,SW,218,5.0,11.0,98,0.00,,,0.00,meteohub,2013-09-08 06:32:00,
2013-09-07 23:37:00,56.8,56.3,29.86,South,176,1.0,11.0,98,0.00,,,0.00,meteohub,2013-09-08 06:37:00,
2013-09-07 23:42:00,57.0,56.5,29.86,West,270,2.0,13.0,98,0.00,,,0.00,meteohub,2013-09-08 06:42:00,
2013-09-07 23:47:00,57.0,56.5,29.86,SSW,211,4.0,13.0,98,0.00,,,0.00,meteohub,2013-09-08 06:47:00,
2013-09-07 23:52:00,57.0,56.5,29.86,SW,225,1.0,13.0,98,0.00,,,0.00,meteohub,2013-09-08 06:52:00,
2013-09-07 23:57:00,57.4,56.8,29.86,WSW,240,10.0,10.0,98,0.00,,,0.00,meteohub,2013-09-08 06:57:00,